LRSV Weather Reports


Display with metric or nautical units.
time (UTC)temp
F
wind
direction
speed
MPH
gust
MPH
rain 1hr
in
rain 24hr
in
rain mn
in
humidity
%
barometer
mb
20260503181820 55 210 6.0 0.0 0.00 0.00 0.00 47 1018.0
20260503180319 55 210 6.0 0.0 0.00 0.00 0.00 47 1018.0
20260503174840 55 190 5.0 0.0 0.00 0.00 0.00 47 1018.0
20260503173345 55 190 5.0 0.0 0.00 0.00 0.00 47 1018.0
20260503171820 57 190 6.0 0.0 0.00 0.00 0.00 48 1018.0
20260503170320 57 190 6.0 0.0 0.00 0.00 0.00 48 1018.0
20260503150320 63 2.0 0.0 0.00 0.00 0.00 34 1019.0
20260503130320 61 130 5.0 0.0 0.00 0.00 0.00 36 1020.0
20260503110341 59 2.0 0.0 0.00 0.00 0.00 34 1021.0
20260503090341 55 5.0 0.0 0.00 0.00 0.00 38 1022.0
20260503080331 55 170 5.0 0.0 0.00 0.00 0.00 38 1022.0
20260503071819 50 230 6.0 0.0 0.00 0.00 0.00 54 1022.0
20260503070321 50 230 6.0 0.0 0.00 0.00 0.00 54 1022.0
20260503060320 46 230 7.0 0.0 0.00 0.00 0.00 66 1022.0
20260503054820 45 230 7.0 0.0 0.00 0.00 0.00 71 1022.0
20260503053320 45 230 7.0 0.0 0.00 0.00 0.00 71 1022.0
20260503051820 43 230 8.0 0.0 0.00 0.00 0.00 76 1022.0
20260503050320 43 230 8.0 0.0 0.00 0.00 0.00 76 1022.0
20260503044820 41 250 3.0 0.0 0.00 0.00 0.00 76 1022.0
20260503043321 41 250 3.0 0.0 0.00 0.00 0.00 76 1022.0
20260503041820 41 1.0 0.0 0.00 0.00 0.00 70 1022.0
20260503040343 41 1.0 0.0 0.00 0.00 0.00 70 1022.0
20260503034822 39 250 6.0 0.0 0.00 0.00 0.00 70 1022.0
20260503033320 39 250 6.0 0.0 0.00 0.00 0.00 70 1022.0
20260503031820 37 240 6.0 0.0 0.00 0.00 0.00 75 1021.0
20260503030320 37 240 6.0 0.0 0.00 0.00 0.00 75 1021.0
20260503024835 41 240 7.0 0.0 0.00 0.00 0.00 66 1021.0
20260503023320 41 240 7.0 0.0 0.00 0.00 0.00 66 1021.0
20260503021820 41 250 7.0 0.0 0.00 0.00 0.00 66 1021.0
20260503020320 41 250 7.0 0.0 0.00 0.00 0.00 66 1021.0
20260503014820 41 250 7.0 0.0 0.00 0.00 0.00 66 1021.0
20260503013320 41 250 7.0 0.0 0.00 0.00 0.00 66 1021.0
20260503011820 43 250 7.0 0.0 0.00 0.00 0.00 61 1021.0
20260503010320 43 250 7.0 0.0 0.00 0.00 0.00 61 1021.0
20260503004820 41 240 7.0 0.0 0.00 0.00 0.00 66 1022.0
20260503003320 41 240 7.0 0.0 0.00 0.00 0.00 66 1022.0
20260503001820 39 240 7.0 0.0 0.00 0.00 0.00 70 1022.0
20260503000320 39 240 7.0 0.0 0.00 0.00 0.00 70 1022.0
20260502234820 39 240 6.0 0.0 0.00 0.00 0.00 70 1022.0
20260502233320 39 240 6.0 0.0 0.00 0.00 0.00 70 1022.0
20260502231820 39 230 6.0 0.0 0.00 0.00 0.00 75 1022.0
20260502230320 39 230 6.0 0.0 0.00 0.00 0.00 75 1022.0
20260502224820 43 220 6.0 0.0 0.00 0.00 0.00 61 1022.0
20260502223320 43 220 6.0 0.0 0.00 0.00 0.00 61 1022.0
20260502221820 39 240 6.0 0.0 0.00 0.00 0.00 75 1022.0
20260502220320 39 240 6.0 0.0 0.00 0.00 0.00 75 1022.0
20260502214820 41 230 6.0 0.0 0.00 0.00 0.00 66 1023.0
20260502213320 41 230 6.0 0.0 0.00 0.00 0.00 66 1023.0
20260502211820 41 220 5.0 0.0 0.00 0.00 0.00 66 1023.0
20260502210320 41 220 5.0 0.0 0.00 0.00 0.00 66 1023.0
20260502204820 41 200 3.0 0.0 0.00 0.00 0.00 66 1023.0
20260502203320 41 200 3.0 0.0 0.00 0.00 0.00 66 1023.0
20260502201820 45 160 3.0 0.0 0.00 0.00 0.00 57 1023.0
20260502200320 45 160 3.0 0.0 0.00 0.00 0.00 57 1023.0
20260502194820 45 130 5.0 0.0 0.00 0.00 0.00 57 1023.0
20260502193320 45 130 5.0 0.0 0.00 0.00 0.00 57 1023.0
20260502191820 46 110 3.0 0.0 0.00 0.00 0.00 53 1023.0
20260502190320 46 110 3.0 0.0 0.00 0.00 0.00 53 1023.0
20260502184820 46 110 5.0 0.0 0.00 0.00 0.00 53 1022.0
20260502183320 46 110 5.0 0.0 0.00 0.00 0.00 53 1022.0